WetterOnline ( https://www.wetteronline.de )

Wetter aktuell Rüdenau

Aktuelles Wetter: Michelstadt-Vielbrunn (455m)

6-stündlich | Neueste Meldungen
Ortszeit Temperatur Wetter
Fr, 30.07. 2:00 14.9° C bewölkt
Do, 29.07. 20:00 19.4° C wolkenlos
Do, 29.07. 14:00 18.8° C wolkig
Do, 29.07. 8:00 15.5° C wolkig
Do, 29.07. 2:00 15.5° C wolkenlos
Mi, 28.07. 20:00 18.0° C bedeckt
Mi, 28.07. 14:00 20.1° C leicht bewölkt
Mi, 28.07. 8:00 15.1° C wolkig
Ortszeit Temperatur Wetter
Fr, 30.07. 5:30 11.5° C fast wolkenlos
Fr, 30.07. 5:10 13.1° C leicht bewölkt
Fr, 30.07. 5:00 15.4° C bewölkt
Fr, 30.07. 4:50 15.4° C bewölkt
Fr, 30.07. 4:40 15.5° C bewölkt
Fr, 30.07. 4:30 15.4° C bewölkt
Fr, 30.07. 4:00 15.3° C bewölkt
Fr, 30.07. 3:30 14.4° C wolkig
Fr, 30.07. 3:00 15.6° C bedeckt
Fr, 30.07. 2:30 15.3° C leicht bewölkt
Ortszeit Relative Feuchte Sichtweite
Fr, 30.07. 2:00 68% 55 km
Do, 29.07. 20:00 49% 60 km
Do, 29.07. 14:00 51% >70 km
Do, 29.07. 8:00 76% >70 km
Do, 29.07. 2:00 88% 50 km
Mi, 28.07. 20:00 77% 65 km
Mi, 28.07. 14:00 66% 45 km
Mi, 28.07. 8:00 87% 30 km
Ortszeit Relative Feuchte Sichtweite
Fr, 30.07. 5:30 81% 40 km
Fr, 30.07. 5:10 76% -
Fr, 30.07. 5:00 65% 50 km
Fr, 30.07. 4:50 65% -
Fr, 30.07. 4:40 64% -
Fr, 30.07. 4:30 66% 45 km
Fr, 30.07. 4:00 67% 60 km
Fr, 30.07. 3:30 70% 55 km
Fr, 30.07. 3:00 67% 60 km
Fr, 30.07. 2:30 67% 50 km
Ortszeit Niederschlagsmenge Niederschlagsart
Fr, 30.07. 2:00 0.0 l/m2 in 6 Std. -
Do, 29.07. 20:00 0.0 l/m2 in 12 Std. -
Do, 29.07. 14:00 0.0 l/m2 in 6 Std. -
Do, 29.07. 8:00 0.0 l/m2 in 12 Std. -
Do, 29.07. 2:00 0.0 l/m2 in 6 Std. -
Mi, 28.07. 20:00 0.3 l/m2 in 12 Std. Regen
Mi, 28.07. 14:00 0.5 l/m2 in 6 Std. -
Mi, 28.07. 8:00 2 l/m2 in 12 Std. Sprühregen
Ortszeit Niederschlagsmenge Niederschlagsart
Fr, 30.07. 5:30 0.0 l/m2 in 1 Std. -
Fr, 30.07. 5:10 keine Meldung -
Fr, 30.07. 5:00 0.0 l/m2 in 1 Std. -
Fr, 30.07. 4:50 keine Meldung -
Fr, 30.07. 4:40 keine Meldung -
Fr, 30.07. 4:30 0.0 l/m2 in 1 Std. -
Fr, 30.07. 4:00 0.0 l/m2 in 1 Std. -
Fr, 30.07. 3:30 0.0 l/m2 in 1 Std. -
Fr, 30.07. 3:00 0.0 l/m2 in 1 Std. -
Fr, 30.07. 2:30 0.0 l/m2 in 1 Std. -
Ortszeit Stärke Spitze Richtung
km/h Bft. km/h Grad Sektor
Fr, 30.07. 2:00 6 1 19 230° SW
Do, 29.07. 20:00 9 2 39 260° W
Do, 29.07. 14:00 19 3 48 260° W
Do, 29.07. 8:00 14 3 25 230° SW
Do, 29.07. 2:00 14 3 32 220° SW
Mi, 28.07. 20:00 18 3 40 220° SW
Mi, 28.07. 14:00 20 4 44 220° SW
Mi, 28.07. 8:00 14 3 25 230° SW
Ortszeit Stärke Spitze Richtung
km/h Bft. km/h Grad Sektor
Fr, 30.07. 5:30 4 1 11 - -
Fr, 30.07. 5:10 7 2 - - -
Fr, 30.07. 5:00 9 2 13 230° SW
Fr, 30.07. 4:50 9 2 - - -
Fr, 30.07. 4:40 9 2 - - -
Fr, 30.07. 4:30 9 2 13 230° SW
Fr, 30.07. 4:00 11 2 11 230° SW
Fr, 30.07. 3:30 7 2 7 - -
Fr, 30.07. 3:00 7 2 9 240° SW
Fr, 30.07. 2:30 7 2 11 - -
Ortszeit Untergrenze Bedeckung Gattung
total tief tief mittel hoch
Fr, 30.07. 2:00 6000 m 7/8 6/8 - - -
Do, 29.07. 20:00 - 0/8 0/8 - - -
Do, 29.07. 14:00 1410 m 6/8 6/8 - - -
Do, 29.07. 8:00 1800 m 5/8 5/8 - - -
Do, 29.07. 2:00 - 0/8 0/8 - - -
Mi, 28.07. 20:00 2100 m 8/8 8/8 - - -
Mi, 28.07. 14:00 630 m 5/8 1/8 - - -
Mi, 28.07. 8:00 6900 m 7/8 4/8 - - -
Ortszeit Bedeckungsgrad in Achtel und Wolkenuntergrenze
Fr, 30.07. 5:30 1(1470m)
Fr, 30.07. 5:10 3(1470m)
Fr, 30.07. 5:00 7(1470m)
Fr, 30.07. 4:50 7(1470m)
Fr, 30.07. 4:40 7(1470m)
Fr, 30.07. 4:30 7(1500m)
Fr, 30.07. 4:00 7(1500m)
Fr, 30.07. 3:30 5(1500m)
Fr, 30.07. 3:00 8(1470m)
Fr, 30.07. 2:30 3(1470m)
Ortszeit Luftdruck NN (hPa) Tendenz (hPa in 3 Std.)
Fr, 30.07. 2:00 1013 - 0,5
Do, 29.07. 20:00 1013 - 0,5
Do, 29.07. 14:00 1014 + 0,2
Do, 29.07. 8:00 1014 + 0,3
Do, 29.07. 2:00 1015 0,0
Mi, 28.07. 20:00 1013 0,0
Mi, 28.07. 14:00 1013 - 0,2
Mi, 28.07. 8:00 1014 0,0
Ortszeit Luftdruck NN (hPa) Tendenz (hPa in 3 Std.)
Fr, 30.07. 5:30 1013 - 0,6
Fr, 30.07. 5:10 1013 keine Meldung
Fr, 30.07. 5:00 1013 - 0,4
Fr, 30.07. 4:50 1013 keine Meldung
Fr, 30.07. 4:40 1013 keine Meldung
Fr, 30.07. 4:30 1013 - 0,6
Fr, 30.07. 4:00 1013 - 0,5
Fr, 30.07. 3:30 1013 - 0,6
Fr, 30.07. 3:00 1013 - 0,5
Fr, 30.07. 2:30 1013 - 0,6
Ortszeit Schneehöhe (cm)
Fr, 30.07. 2:00 -
Do, 29.07. 20:00 -
Do, 29.07. 14:00 -
Do, 29.07. 8:00 -
Do, 29.07. 2:00 -
Mi, 28.07. 20:00 -
Mi, 28.07. 14:00 -
Mi, 28.07. 8:00 -
Ortszeit Schneehöhe (cm)
Fr, 30.07. 5:30 -
Fr, 30.07. 5:10 -
Fr, 30.07. 5:00 -
Fr, 30.07. 4:50 -
Fr, 30.07. 4:40 -
Fr, 30.07. 4:30 -
Fr, 30.07. 4:00 -
Fr, 30.07. 3:30 -
Fr, 30.07. 3:00 -
Fr, 30.07. 2:30 -
Link zu dieser Seite / Seite empfehlen

Das Wetter in ...